Lid_Strength_Index
2 2 2 2 2 2 3 5 5 1 1 1 1 1 2 2 1 1 1 2 2 2
2 2 2 2 1 2 1 2 5 3 1 1 1 1 2 3 2 1 1 1 4 4
2 2 1 1 2 2 1 1 1 2 1 2 1 1 2 3 3 2 2 3 5 6
4 1 1 2 2 1 1 1 1 1 2 2 2 2 3 3 4 4 5 5 7 8
4 3 2 2 2 1 1 1 1 1 1 2 2 3 3 4 4 5 6 6 8 9
4 4 3 2 2 1 1 1 1 1 3 3 3 4 4 6 8 8 9 9 8 8
4 3 3 1 2 2 1 1 2 2 3 3 5 5 7 8 8 7 8 9 9 10
4 3 3 1 2 2 2 1 2 3 4 5 6 7 8 8 7 8 7 7 8 8
4 3 3 2 2 2 2 2 2 2 4 5 5 8 7 8 9 8 8 8 9 9
4 3 3 2 2 2 2 2 3 4 5 6 7 9 9 8 8 8 9 10 10 10
4 4 3 3 3 3 2 3 4 6 6 8 8 10 10 8 9 10 10 10 11 11
3 4 4 4 4 3 3 5 5 6 7 9 10 10 10 10 10 11 12 12 11 11
4 4 4 4 3 3 5 6 7 9 8 8 10 10 10 9 10 11 11 12 12 11
4 3 3 3 4 5 6 7 8 8 9 10 10 10 10 10 11 11 12 13 13 13